GW6265 Weather Reports


time (UTC)temp
F
wind
direction
speed
knots
gust
knots
rain 1hr
in
rain 24hr
in
rain mn
in
humidity
%
barometer
mb
20260506044643 48 0 0.9 2.6 0.00 0.00 0.00 84 1031.5
20260506044139 48 342 2.6 2.6 0.00 0.00 0.00 83 1031.6
20260506043636 48 1 2.6 3.5 0.00 0.00 0.00 82 1031.7
20260506043134 48 347 0.9 2.6 0.00 0.00 0.00 82 1031.7
20260506042633 48 354 0.9 1.7 0.00 0.00 0.00 81 1031.7
20260506042131 48 6 1.7 3.5 0.00 0.00 0.00 80 1031.5
20260506041629 48 32 4.3 5.2 0.00 0.00 0.00 80 1031.6
20260506041125 48 2 1.7 2.6 0.00 0.00 0.00 79 1031.6
20260506040623 48 14 2.6 3.5 0.00 0.00 0.00 79 1031.6
20260506040120 48 11 2.6 2.6 0.00 0.00 0.00 78 1031.5
20260506035617 48 14 2.6 4.3 0.00 0.03 0.03 78 1031.4
20260506035113 48 11 3.5 3.5 0.00 0.03 0.03 78 1031.3
20260506034611 48 1 1.7 2.6 0.00 0.03 0.03 77 1031.4
20260506034108 48 342 1.7 2.6 0.00 0.03 0.03 77 1031.2
20260506033605 48 250 0.9 2.6 0.00 0.03 0.03 77 1031.4
20260506033102 48 3 2.6 3.5 0.00 0.03 0.03 77 1031.4
20260506032559 48 13 1.7 2.6 0.00 0.03 0.03 76 1031.2
20260506032056 48 356 1.7 3.5 0.00 0.03 0.03 76 1031.7
20260506031553 48 7 1.7 4.3 0.00 0.03 0.03 76 1031.4
20260506031050 48 352 1.7 3.5 0.00 0.03 0.03 75 1031.3
20260506030548 48 347 1.7 2.6 0.00 0.03 0.03 75 1031.3
20260506030045 49 22 2.6 4.3 0.00 0.03 0.03 74 1031.3
20260506025542 49 357 1.7 2.6 0.00 0.03 0.03 74 1031.2
20260506025038 49 355 1.7 3.5 0.00 0.03 0.03 74 1031.3
20260506024535 49 38 1.7 2.6 0.00 0.03 0.03 73 1031.4
20260506024032 49 339 1.7 2.6 0.00 0.03 0.03 73 1031.4
20260506023528 49 315 0.9 1.7 0.00 0.03 0.03 73 1031.7
20260506023026 49 29 1.7 3.5 0.00 0.03 0.03 72 1031.5
20260506022523 50 192 1.7 4.3 0.00 0.03 0.03 72 1031.6
20260506022020 50 32 1.7 3.5 0.00 0.03 0.03 71 1031.7
20260506021518 50 34 0.0 3.5 0.00 0.03 0.03 71 1031.5
20260506021015 50 146 2.6 2.6 0.00 0.03 0.03 70 1031.7
20260506020512 50 35 0.0 1.7 0.00 0.03 0.03 69 1031.6
20260506020010 50 25 1.7 3.5 0.00 0.03 0.03 67 1031.6
20260506015507 50 68 1.7 2.6 0.00 0.03 0.03 67 1031.6
20260506015003 50 34 1.7 3.5 0.00 0.03 0.03 66 1031.8
20260506014501 50 43 2.6 3.5 0.00 0.03 0.03 66 1031.6
20260506013957 50 32 1.7 3.5 0.00 0.03 0.03 66 1031.5
20260506013455 50 23 1.7 1.7 0.00 0.03 0.03 66 1031.2
20260506012951 51 58 1.7 3.5 0.00 0.03 0.03 65 1031.2
20260506012447 51 51 2.6 3.5 0.00 0.03 0.03 66 1031.1
20260506011944 51 73 1.7 3.5 0.00 0.03 0.03 66 1031.1
20260506011442 51 43 1.7 2.6 0.00 0.03 0.03 66 1031.1
20260506010938 51 99 1.7 4.3 0.00 0.03 0.03 66 1030.9
20260506010438 51 51 1.7 2.6 0.00 0.03 0.03 66 1031.0
20260506005933 51 51 1.7 2.6 0.00 0.03 0.03 67 1031.1
20260506005432 51 327 0.0 0.9 0.00 0.03 0.03 64 1031.0
20260506004926 51 61 1.7 1.7 0.00 0.03 0.03 63 1030.9
20260506004425 51 47 0.9 1.7 0.00 0.03 0.03 64 1030.8
20260506003920 51 49 0.9 0.9 0.00 0.03 0.03 64 1030.8
20260506003417 51 71 0.0 1.7 0.00 0.03 0.03 64 1030.7
20260506002913 51 43 0.0 0.0 0.00 0.03 0.03 66 1030.8
20260506002409 51 44 0.0 0.0 0.00 0.03 0.03 66 1030.7
20260506001905 51 128 0.0 0.0 0.00 0.03 0.03 64 1030.7
20260506001402 51 76 0.9 1.7 0.00 0.03 0.03 64 1030.6
20260506000859 51 59 1.7 3.5 0.00 0.03 0.03 64 1030.5
20260506000357 51 84 1.7 1.7 0.00 0.03 0.03 63 1030.5
20260505235853 51 92 1.7 2.6 0.00 0.03 0.03 62 1030.5
20260505235351 51 61 2.6 3.5 0.00 0.03 0.03 62 1030.5
20260505234848 51 45 0.9 1.7 0.00 0.03 0.03 59 1030.3
20260505234346 51 79 0.0 1.7 0.00 0.03 0.03 59 1030.3
20260505233842 51 17 0.0 1.7 0.00 0.03 0.03 60 1030.3
20260505233340 51 172 0.0 0.9 0.00 0.03 0.03 60 1030.2
20260505232837 51 89 0.0 1.7 0.00 0.03 0.03 61 1030.1
20260505232335 52 172 0.0 0.9 0.00 0.03 0.03 61 1030.0
20260505231831 52 40 0.9 0.9 0.00 0.03 0.03 61 1029.9
20260505231329 52 161 0.0 1.7 0.00 0.03 0.03 60 1030.0
20260505230827 52 29 1.7 2.6 0.00 0.03 0.03 60 1030.1
20260505230324 52 28 1.7 1.7 0.00 0.03 0.03 60 1030.2
20260505225821 52 297 0.0 1.7 0.00 0.03 0.03 60 1030.2
20260505225318 52 354 0.0 2.6 0.00 0.03 0.03 61 1030.3
20260505224813 52 248 1.7 2.6 0.00 0.03 0.03 61 1030.4
20260505224311 52 277 1.7 3.5 0.00 0.03 0.03 60 1030.4
20260505223808 52 313 1.7 3.5 0.00 0.03 0.03 61 1030.5
20260505223305 52 317 1.7 2.6 0.00 0.03 0.03 61 1030.2
20260505222801 51 275 0.9 3.5 0.00 0.03 0.03 61 1030.6
20260505222257 52 289 1.7 4.3 0.00 0.03 0.03 62 1030.6
20260505221754 51 287 1.7 3.5 0.00 0.03 0.03 63 1030.5
20260505221251 51 295 0.0 2.6 0.00 0.03 0.03 63 1030.6
20260505220748 51 254 1.7 3.5 0.00 0.03 0.03 64 1030.6
20260505220245 51 39 0.9 4.3 0.00 0.03 0.03 63 1030.3
20260505215743 51 305 2.6 3.5 0.00 0.03 0.03 63 1030.3
20260505215241 51 321 0.9 6.1 0.00 0.03 0.03 62 1030.1
20260505214739 51 306 1.7 4.3 0.00 0.03 0.03 62 1030.0
20260505214236 51 13 0.0 5.2 0.00 0.03 0.03 62 1030.4
20260505213733 51 275 1.7 2.6 0.00 0.03 0.03 63 1030.1
20260505213230 51 265 3.5 5.2 0.00 0.03 0.03 62 1030.0
20260505212726 51 285 1.7 5.2 0.00 0.03 0.03 63 1030.1
20260505212223 51 282 5.2 7.0 0.00 0.03 0.03 63 1030.1
20260505211720 51 265 2.6 7.0 0.00 0.03 0.03 64 1029.9
20260505211218 51 279 4.3 7.8 0.00 0.03 0.03 66 1029.9
20260505210714 51 279 3.5 5.2 0.00 0.03 0.03 66 1030.0
20260505210211 51 278 1.7 4.3 0.00 0.03 0.03 67 1030.0
20260505205708 51 232 0.9 5.2 0.00 0.03 0.03 68 1030.1
20260505205206 51 321 1.7 5.2 0.00 0.03 0.03 69 1030.0
20260505204702 51 60 1.7 5.2 0.00 0.03 0.03 69 1029.9
20260505204200 52 18 0.0 5.2 0.00 0.03 0.03 70 1029.9
20260505203658 52 275 3.5 6.1 0.02 0.03 0.03 69 1030.2
20260505203154 52 275 1.7 5.2 0.02 0.03 0.03 69 1030.0
20260505202649 52 351 1.7 4.3 0.00 0.03 0.03 70 1029.7
20260505202146 52 259 2.6 4.3 0.00 0.03 0.03 68 1029.9
20260505201643 52 293 1.7 4.3 0.00 0.03 0.03 68 1029.8
20260505201141 53 165 1.7 4.3 0.00 0.03 0.03 69 1029.7
20260505200639 53 19 1.7 3.5 0.00 0.03 0.03 71 1029.6
20260505200135 53 141 0.0 1.7 0.00 0.03 0.03 72 1029.7
20260505195631 53 137 1.7 4.3 0.02 0.03 0.03 70 1029.8
20260505195129 53 126 1.7 4.3 0.09 0.03 0.03 68 1029.8
20260505194626 54 279 2.6 4.3 0.14 0.02 0.02 66 1029.4
20260505194121 55 29 2.6 5.2 0.05 0.01 0.01 62 1029.2
20260505193619 55 28 4.3 5.2 0.00 0.00 0.00 59 1029.4
20260505193116 56 313 2.6 3.5 0.00 0.00 0.00 58 1029.5
20260505192614 57 3 4.3 5.2 0.00 0.00 0.00 57 1029.2
20260505192111 57 330 3.5 5.2 0.00 0.00 0.00 56 1028.9
20260505191610 57 357 2.6 5.2 0.00 0.00 0.00 57 1028.9
20260505191107 58 354 1.7 5.2 0.00 0.00 0.00 51 1028.8
20260505190602 58 346 3.5 6.1 0.00 0.00 0.00 48 1028.7
20260505190058 58 26 2.6 5.2 0.00 0.00 0.00 48 1028.7
20260505185555 58 310 5.2 7.0 0.00 0.00 0.00 47 1028.7
20260505185051 59 345 3.5 11.3 0.00 0.00 0.00 46 1028.7
20260505184548 59 300 6.1 13.0 0.00 0.00 0.00 46 1028.3
20260505184045 59 286 2.6 7.8 0.00 0.00 0.00 47 1028.2
20260505183541 59 337 5.2 7.8 0.00 0.00 0.00 47 1028.4
20260505183039 60 347 5.2 10.4 0.00 0.00 0.00 46 1028.4
20260505182535 60 306 3.5 7.8 0.00 0.00 0.00 45 1028.1
20260505182032 60 287 8.7 11.3 0.00 0.00 0.00 46 1027.9
20260505181528 60 309 3.5 7.8 0.00 0.00 0.00 46 1028.0
20260505181026 61 305 4.3 7.0 0.00 0.00 0.00 46 1027.9
20260505180521 60 307 5.2 7.8 0.00 0.00 0.00 47 1027.9
20260505180020 60 14 3.5 11.3 0.00 0.00 0.00 48 1027.7
20260505175514 60 322 1.7 7.8 0.00 0.00 0.00 48 1027.6
20260505175012 61 295 5.2 10.4 0.00 0.00 0.00 48 1027.4
20260505174509 61 318 1.7 6.1 0.00 0.00 0.00 48 1027.4
20260505174004 61 288 7.0 7.8 0.00 0.00 0.00 48 1027.5
20260505173501 62 260 7.8 8.7 0.00 0.00 0.00 47 1027.3
20260505172958 62 283 5.2 8.7 0.00 0.00 0.00 50 1027.2
20260505172457 62 275 5.2 7.8 0.00 0.00 0.00 48 1027.3
20260505171956 63 331 1.7 7.8 0.00 0.00 0.00 48 1027.1
20260505171453 64 301 4.3 9.6 0.00 0.00 0.00 48 1026.6
20260505170949 63 274 5.2 7.0 0.00 0.00 0.00 52 1026.8
20260505170446 63 290 3.5 10.4 0.00 0.00 0.00 52 1026.7
20260505165942 63 333 0.9 12.2 0.00 0.00 0.00 52 1026.7
20260505165438 63 231 1.7 5.2 0.00 0.00 0.00 53 1026.3
20260505164933 63 293 7.8 7.8 0.00 0.00 0.00 53 1026.4
20260505164430 63 228 1.7 6.1 0.00 0.00 0.00 54 1026.4
20260505163928 63 341 0.0 4.3 0.00 0.00 0.00 55 1026.4
20260505163427 63 301 2.6 3.5 0.00 0.00 0.00 58 1026.4
20260505162926 62 67 1.7 4.3 0.00 0.00 0.00 60 1026.9
20260505162421 61 235 1.7 1.7 0.00 0.00 0.00 60 1026.8
20260505161918 61 101 0.9 2.6 0.00 0.00 0.00 60 1026.7
20260505161415 60 358 1.7 2.6 0.00 0.00 0.00 61 1026.9
20260505160912 60 14 2.6 5.2 0.00 0.00 0.00 62 1026.7
20260505160410 60 273 3.5 3.5 0.00 0.00 0.00 61 1026.7
20260505153349 59 354 3.5 3.5 0.00 0.00 0.00 61 1026.3
20260505152846 58 0 1.7 3.5 0.00 0.00 0.00 63 1026.0
20260505152344 58 355 3.5 5.2 0.00 0.00 0.00 64 1026.7
20260505151843 58 337 4.3 4.3 0.00 0.00 0.00 62 1026.6
20260505151340 58 345 2.6 4.3 0.00 0.00 0.00 63 1026.3
20260505150837 58 359 2.6 5.2 0.00 0.00 0.00 62 1025.9
20260505150334 58 354 2.6 3.5 0.00 0.00 0.00 63 1025.9
20260505140258 57 57 1.7 5.2 0.00 0.00 0.00 64 1024.8
20260505130222 64 311 2.6 7.0 0.00 0.00 0.00 66 1023.6
20260505124712 62 266 5.2 5.2 0.00 0.00 0.00 69 1023.3
20260505124209 62 347 0.9 3.5 0.00 0.00 0.00 70 1023.0
20260505123705 62 322 3.5 5.2 0.00 0.00 0.00 70 1022.9
20260505123202 62 332 2.6 8.7 0.00 0.00 0.00 69 1022.8
20260505122658 62 272 2.6 5.2 0.00 0.00 0.00 70 1022.8
20260505122155 62 276 1.7 6.1 0.00 0.00 0.00 70 1022.7
20260505121652 62 275 3.5 5.2 0.00 0.00 0.00 70 1022.7
20260505121148 62 249 2.6 4.3 0.00 0.00 0.00 69 1022.9
20260505120645 62 3 2.6 7.8 0.00 0.00 0.00 69 1022.7
20260505120141 62 277 2.6 6.1 0.00 0.00 0.00 69 1022.9
20260505115635 62 0 2.6 7.8 0.00 0.00 0.00 69 1022.8
20260505115133 62 332 1.7 5.2 0.00 0.00 0.00 69 1023.0
20260505114630 62 315 1.7 7.8 0.00 0.00 0.00 69 1022.9
20260505114126 62 310 3.5 8.7 0.00 0.00 0.00 69 1022.9
20260505113622 62 350 1.7 8.7 0.00 0.00 0.00 69 1022.7
20260505113119 62 261 1.7 7.0 0.00 0.00 0.00 69 1022.8
20260505112615 62 273 6.1 7.0 0.00 0.00 0.00 69 1022.6
20260505112114 61 24 2.6 5.2 0.00 0.00 0.00 69 1022.6
20260505111613 61 295 3.5 5.2 0.00 0.00 0.00 69 1022.3
20260505111109 61 242 3.5 5.2 0.00 0.00 0.00 70 1022.3
20260505110606 61 326 1.7 5.2 0.00 0.00 0.00 70 1022.5
20260505102038 61 313 1.7 3.5 0.00 0.00 0.00 70 1021.6
20260505101537 61 302 3.5 7.8 0.00 0.00 0.00 69 1021.6
20260505101033 62 324 1.7 8.7 0.00 0.00 0.00 69 1021.4
20260505100530 62 280 3.5 6.1 0.00 0.00 0.00 69 1021.3
20260505100027 62 267 5.2 6.1 0.00 0.00 0.00 69 1021.3
20260505095523 62 289 5.2 6.1 0.00 0.00 0.00 68 1021.2
20260505095019 62 321 2.6 7.8 0.00 0.00 0.00 68 1021.3
20260505094516 62 282 5.2 7.0 0.00 0.00 0.00 68 1021.0
20260505094012 62 357 1.7 7.8 0.00 0.00 0.00 68 1020.9
20260505093509 62 291 3.5 8.7 0.00 0.00 0.00 68 1021.3
20260505093006 62 320 3.5 7.8 0.00 0.00 0.00 68 1021.6
20260505092504 62 266 1.7 6.1 0.00 0.00 0.00 68 1021.2
20260505092001 62 295 3.5 5.2 0.00 0.00 0.00 68 1021.3
20260505091458 62 310 2.6 6.1 0.00 0.00 0.00 69 1021.2
20260505090956 62 315 3.5 4.3 0.00 0.00 0.00 69 1021.6
20260505090454 62 269 3.5 8.7 0.00 0.00 0.00 69 1021.2
20260505085951 62 348 3.5 7.0 0.00 0.00 0.00 69 1021.3
20260505085449 62 326 1.7 7.8 0.00 0.00 0.00 70 1021.2
20260505084947 61 298 3.5 7.8 0.00 0.00 0.00 70 1021.1
20260505084445 62 28 1.7 4.3 0.00 0.00 0.00 69 1021.1
20260505083943 62 280 3.5 7.0 0.00 0.00 0.00 69 1021.0
20260505083440 62 307 3.5 4.3 0.00 0.00 0.00 69 1021.4
20260505082936 62 5 2.6 7.0 0.00 0.00 0.00 69 1021.4
20260505082432 62 241 5.2 5.2 0.00 0.00 0.00 69 1021.4
20260505081929 62 1 2.6 4.3 0.00 0.00 0.00 69 1021.6
20260505081426 62 318 2.6 5.2 0.00 0.00 0.00 68 1021.7
20260505080922 62 323 1.7 7.0 0.00 0.00 0.00 68 1021.8
20260505080419 62 269 1.7 5.2 0.00 0.00 0.00 68 1021.7
20260505075914 62 285 2.6 7.0 0.00 0.00 0.00 68 1021.6
20260505075411 62 329 2.6 8.7 0.00 0.00 0.00 68 1021.7
20260505074909 62 304 4.3 7.0 0.00 0.00 0.00 68 1021.6
20260505074406 62 313 1.7 7.8 0.00 0.00 0.00 68 1021.7
20260505073903 62 10 1.7 3.5 0.00 0.00 0.00 68 1021.9
20260505073400 62 337 1.7 7.8 0.00 0.00 0.00 68 1021.8
20260505072857 62 311 1.7 5.2 0.00 0.00 0.00 67 1022.0
20260505072353 62 278 4.3 4.3 0.00 0.00 0.00 67 1021.9
20260505071850 62 308 2.6 5.2 0.00 0.00 0.00 66 1021.8
20260505071346 62 259 1.7 9.6 0.00 0.00 0.00 66 1021.7
20260505070845 62 288 4.3 6.1 0.00 0.00 0.00 66 1021.6
20260505070341 62 66 0.9 5.2 0.00 0.00 0.00 66 1021.8
20260505065836 63 286 1.7 10.4 0.00 0.00 0.00 65 1021.8
20260505065333 63 13 1.7 7.0 0.00 0.00 0.00 65 1021.7
20260505064830 63 281 6.1 7.8 0.00 0.00 0.00 65 1021.7
20260505064327 62 300 1.7 8.7 0.00 0.00 0.00 65 1021.9
20260505063825 62 303 3.5 4.3 0.00 0.00 0.00 65 1021.9
20260505063321 62 13 2.6 12.2 0.00 0.00 0.00 65 1021.8
20260505062817 63 308 4.3 4.3 0.00 0.00 0.00 64 1022.1
20260505062315 63 297 2.6 5.2 0.00 0.00 0.00 64 1022.0
20260505061812 63 349 2.6 7.8 0.00 0.00 0.00 64 1022.1
20260505061310 63 281 9.6 10.4 0.00 0.00 0.00 64 1022.2
20260505060807 63 257 10.4 11.3 0.00 0.00 0.00 63 1022.2
20260505060304 62 291 1.7 6.1 0.00 0.00 0.00 64 1022.3
20260505055759 62 291 2.6 5.2 0.00 0.00 0.00 64 1022.3
20260505055256 63 2 1.7 5.2 0.00 0.00 0.00 63 1022.4
20260505054753 63 232 1.7 7.8 0.00 0.00 0.00 63 1022.3
20260505054251 62 300 1.7 6.1 0.00 0.00 0.00 64 1022.4
20260505053749 63 266 3.5 6.1 0.00 0.00 0.00 64 1022.3
20260505053245 63 253 3.5 3.5 0.00 0.00 0.00 64 1022.4
20260505052743 63 234 2.6 4.3 0.00 0.00 0.00 64 1022.2
20260505052239 63 256 6.1 7.8 0.00 0.00 0.00 64 1022.1
20260505051736 63 68 2.6 5.2 0.00 0.00 0.00 64 1022.2
20260505051234 63 27 1.7 5.2 0.00 0.00 0.00 64 1022.3
20260505050732 63 271 2.6 5.2 0.00 0.00 0.00 64 1022.3
20260505050230 63 283 3.5 6.1 0.00 0.00 0.00 63 1022.3